Showing default

XM-3, 28626

Orbit data source: Space-Track

XM-3, 28626 is a payload satellite owned by XM Radio (US) in GEO that was launched on Tue, 01 Mar 2005 UTC via a ZENIT-3SL launch vehicle from the Sea Launch (SEAL). Payloads include a variety of satellites, spacecraft, and rockets equipped with specific instruments for various scientific and technological missions. These include communications satellites like Starlink; space stations such as the ISS; scientific satellites like the Hubble; Earth observation satellites from companies like Planet Labs, Umbra, and HawkEye 360; GPS; miniature CubeSats for education and research; and military/defense satellites.

Loading next visibility...
XM-3 details
Identifier
28626, 2005-008A
Orbit
GEO
Last TLE update2 days ago
Origin
Flag of USXM Radio (US)
ManufacturerBoeing/ES
MissionOperational Commercial Communications
Bus & MotorBSS-702HP, R-4D-11-300
Mass4,682 kg wet, ~2,500 kg dry
Launch date (UTC)
2005-03-01 (20 years ago)
Launch vehicle
ZENIT-3SL
Launch site
Sea Launch (SEAL)
Object type
Payload
Rocket body
Debris
Shape & HBRBox + 2 Pan, 40.4 m
Radar Cross Section61.334 m², Large (>1 m²)

Expand to show TLE details & history

TLE from 2 days ago
0 XM-3
1 28626U 05008A   25034.30948318 -.00000200  00000-0  00000-0 0  9990
2 28626   0.0403 258.0695 0004468 329.0859 292.8054  1.00272618 37621
Epoch: 2025-02-03T07:25Z
Definitive object data (Epoch: 2025-02-03T07:25:39.346Z)
Latitude-0.01411°
Longitude-85.20787°
Altitude35,778.58 km
Speed3.075 km/s
True Right ascension10h 39m 44s
True Declination0° 00' 51"
Sunlit
Object was in daylight at TLE epoch
Visualization TLE readout
Latitude-0.00905°
Longitude-89.06657°
Altitude35,779.899 km
Speed3.075 km/s
Apparent Right ascension10h 34m 29s
Apparent Declination-6° 11' 27"
Sunlit
Object is in daylight
Visualization observer readout
Local Sidereal Time09:04:38
Azimuth150.533° SSE
Elevation39.455°
Doppler factor1
Orbital elements
Apogee altitude35,806.271 km
Perigee altitude35,768.592 km
Semi-major axis42,165.569 km
Eccentricity0.0004468
Inclination0.0403°
RAAN258.0695°
Arg. of periapsis329.0859°
True anomaly292.75819°
Mean anomaly292.8054°
Eccentric anomaly292.7818°
Mean motion0.25067 °/min
BSTARUnknown
Orbital period1436.14 mins
Loading historical data...
28626 neighbors
Authenticating...
Loading maneuver chart data...
Loading historical data...
Loading historical data...
Loading historical data...
Loading historical data...
Loading historical data...
Loading historical data...
Loading historical data...
Other satellites on launch #8 in the year 2005 (2005-03-01 UTC)

XM-3 Visibility forecast

Observer location: undefined°, undefined

Span
Click to sort rows by Start time (UTC) header in descending order
Start Az.
Max El. time (UTC)
Max El. Az.
Max El.
End time (UTC)
End Az.
1440 mins2025-02-05 07:02:22.416Z150.543° SSE2025-02-06 07:02:22.416Z150.526° SSE32.437°2025-02-06 07:02:22.416Z150.526° SSE
|